SCP
0 0 0 0 0 0 0 0 0 0 0 0 0 0 0 0 0 0 0 0 0 0 0 0 0 0 0 0 0 0 0 0 0 0 0 0 0 0 0 0 0 0 0 0 0 0 0 0 0
0 0 0 0 0 0 0 0 0 0 0 0 0 0 0 0 0 0 0 0 0 0 0 0 0 0 0 0 0 0 0 0 0 0 0 0 0 0 0 0 0 0 0 0 0 0 0 0 0
0 0 0 0 0 0 0 0 0 0 0 0 0 0 0 0 0 0 0 0 0 0 0 0 0 0 0 0 0 0 0 0 0 0 0 0 0 0 0 0 0 0 0 0 0 0 0 0 0
0 0 0 0 0 0 0 0 0 0 0 0 0 0 0 0 0 0 0 0 0 0 0 0 0 0 0 0 0 0 0 0 0 0 0 0 0 0 0 0 0 0 0 0 0 0 0 0 0
0 0 0 0 0 0 0 0 0 0 0 0 0 0 0 0 0 0 0 0 0 0 0 0 0 0 0 0 0 0 0 0 0 0 0 0 0 0 0 0 0 0 0 0 0 0 0 0 0
0 0 0 0 0 0 0 0 0 0 0 0 0 0 0 0 0 0 0 0 0 0 0 0 0 0 0 0 0 0 0 0 0 0 0 0 0 0 0 0 0 0 0 0 0 0 0 0 0
0 0 0 0 0 0 0 0 0 0 0 0 0 0 0 0 0 0 0 0 0 0 0 0 0 0 0 0 0 0 0 0 0 0 0 0 0 0 0 0 0 0 0 0 0 0 0 0 0
0 0 0 0 0 0 0 0 0 0 0 0 0 0 0 0 0 0 0 0 0 0 0 0 0 0 0 0 0 0 0 0 0 0 0 0 0 0 0 0 0 0 0 0 0 0 0 0 0
0 0 0 0 0 0 0 0 0 0 0 0 0 0 0 0 0 0 0 0 0 0 0 0 0 0 0 0 0 0 0 0 0 0 0 0 0 0 0 0 0 0 0 0 0 0 0 0 0
0 0 0 0 0 0 0 0 0 0 0 0 0 0 0 0 0 0 0 0 0 0 0 0 0 0 0 0 0 0 0 0 0 0 0 0 0 0 0 0 0 0 0 0 0 0 0 0 0
0 0 0 0 0 0 0 0 0 0 0 0 0 0 0 0 0 0 0 0 0 0 0 0 0 0 0 0 0 0 0 0 0 0 0 0 0 0 0 0 0 0 0 0 0 0 0 0 0
0 0 0 0 0 0 0 0 0 0 0 0 0 0 0 0 0 0 0 0 0 0 0 0 0 0 0 0 0 0 0 0 0 0 0 0 0 0 0 0 0 0 0 0 0 0 0 0 0
0 0 0 0 0 0 0 0 0 0 0 0 0 0 0 0 0 0 0 0 0 0 0 0 0 0 0 0 0 0 0 0 0 0 0 0 0 0 0 0 0 0 0 0 0 0 0 0 0
0 0 0 0 0 0 0 0 0 0 0 0 0 0 0 0 0 0 0 0 0 0 0 0 0 0 0 0 0 0 0 0 0 0 0 0 0 0 0 0 0 0 0 0 0 0 0 0 0
0 0 0 0 0 0 0 0 0 0 0 0 0 0 0 0 0 0 0 0 0 0 0 0 0 0 0 0 0 0 0 0 0 0 0 0 0 0 0 0 0 0 0 0 0 0 0 0 0
0 0 0 0 0 0 0 0 0 0 0 0 0 0 0 0 0 0 0 0 0 0 0 0 0 0 0 0 0 0 0 0 0 0 0 0 0 0 0 0 0 0 0 0 0 0 0 0 0
0 0 0 0 0 0 0 0 0 0 0 0 0 0 0 0 0 0 0 0 0 0 0 0 0 0 0 0 0 0 0 0 0 0 0 0 0 0 0 0 0 0 0 0 0 0 0 0 0
0 0 0 0 0 0 0 0 0 0 0 0 0 0 0 0 0 0 0 0 0 0 0 0 0 0 0 0 0 0 0 0 0 0 0 0 0 0 0 0 0 0 0 0 0 0 0 0 0
0 0 0 0 0 0 0 0 0 0 0 0 0 0 0 0 0 0 0 0 0 0 0 0 0 0 0 0 0 0 0 0 0 0 0 0 0 0 0 0 0 0 0 0 0 0 0 0 0
0 0 0 0 0 0 0 0 0 0 0 0 0 0 0 0 0 0 0 0 0 0 0 0 0 0 0 0 0 0 0 0 0 0 0 0 0 0 0 0 0 0 0 0 0 0 0 0 0
0 0 0 0 0 0 0 0 0 0 0 0 0 0 0 0 0 0 0 0 0 0 0 0 0 0 0 0 0 0 0 0 0 0 0 0 0 0 0 0 0 0 0 0 0 0 0 0 0
0 0 0 0 0 0 0 0 0 0 0 0 0 0 0 0 0 0 0 0 0 0 0 0 0 0 0 0 0 0 0 0 0 0 0 0 0 0 0 0 0 0 0 0 0 0 0 0 0
0 0 0 0 0 0 0 0 0 0 0 0 0 0 0 0 0 0 0 0 0 0 0 0 0 0 0 0 0 0 0 0 0 0 0 0 0 0 0 0 0 0 0 0 0 0 0 0 0
0 0 0 0 0 0 0 0 0 0 0 0 0 0 0 0 0 0 0 0 0 0 0 0 0 0 0 0 0 0 0 0 0 0 0 0 0 0 0 0 0 0 0 0 0 0 0 0 0
0 0 0 0 0 0 0 0 0 0 0 0 0 0 0 0 0 0 0 0 0 0 0 0 0 0 0 0 0 0 0 0 0 0 0 0 0 0 0 0 0 0 0 0 0 0 0 0 0
0 0 0 0 0 0 0 0 0 0 0 0 0 0 0 0 0 0 0 0 0 0 0 0 0 0 0 0 0 0 0 0 0 0 0 0 0 0 0 0 0 0 0 0 0 0 0 0 0
0 0 0 0 0 0 0 0 0 0 0 0 0 0 0 0 0 0 0 0 0 0 0 0 0 0 0 0 0 0 0 0 0 0 0 0 0 0 0 0 0 0 0 0 0 0 0 0 0
0 0 0 0 0 0 0 0 0 0 0 0 0 0 0 0 0 0 0 0 0 0 0 0 0 0 0 0 0 0 0 0 0 0 0 0 0 0 0 0 0 0 0 0 0 0 0 0 0
0 0 0 0 0 0 0 0 0 0 0 0 0 0 0 0 0 0 0 0 0 0 0 0 0 0 0 0 0 0 0 0 0 0 0 0 0 0 0 0 0 0 0 0 0 0 0 0 0
0 0 0 0 0 0 0 0 0 0 0 0 0 0 0 0 0 0 0 0 0 0 0 0 0 0 0 0 0 0 0 0 0 0 0 0 0 0 0 0 0 0 0 0 0 0 0 0 0
Wind_Speed
9 10 7 3 3 1 4 6 7 6 6 7 7 8 11 11 8 7 2 4 6 9 9 10 10 10 10 11 11 11 11 11 11 11 11 11 11 11 11 11 11 11 11 12 12 13 13 14 13
10 7 4 3 2 1 5 7 8 8 5 4 6 8 10 11 10 8 3 3 6 9 10 9 10 10 10 10 10 10 11 11 11 11 11 11 11 11 11 11 12 12 12 12 12 13 13 13 13
11 8 4 2 2 5 5 6 7 6 4 4 6 8 8 7 8 5 4 4 7 9 10 10 10 10 10 10 10 10 10 10 10 10 10 11 11 11 11 11 12 12 12 12 12 13 13 13 13
6 4 3 0 6 8 7 6 5 5 5 5 6 8 8 8 5 6 5 6 8 9 10 9 10 10 10 10 10 10 10 10 9 9 9 10 10 10 11 11 12 12 12 12 12 13 13 13 12
4 3 2 2 5 7 6 5 4 4 5 6 8 9 8 7 8 8 5 6 7 8 9 9 10 10 10 10 10 10 10 9 9 9 9 9 10 10 11 11 11 11 12 12 13 13 12 12 12
3 3 1 3 6 6 5 5 5 6 6 5 7 8 7 6 7 6 5 4 6 7 8 9 10 10 10 10 10 9 9 9 9 8 8 9 10 10 11 11 12 12 12 12 12 12 11 11 10
2 2 1 4 4 5 5 5 5 5 5 5 4 7 7 7 6 4 4 4 5 6 6 7 8 8 9 10 9 8 8 7 7 7 7 8 8 10 10 11 12 12 12 12 12 12 11 10 10
2 2 0 3 4 5 5 4 5 5 6 5 4 5 6 8 6 5 4 4 4 5 5 5 6 7 6 6 7 7 6 5 5 5 6 7 8 9 10 10 11 11 11 11 11 11 10 9 9
3 1 1 3 3 4 4 4 5 5 6 6 7 9 10 10 7 5 4 4 4 4 3 4 5 5 5 5 7 5 5 4 3 3 4 4 4 5 6 10 10 10 10 9 9 9 8 7 6
1 1 3 3 3 4 3 3 3 4 5 6 8 9 10 8 7 5 4 4 4 4 3 3 4 4 4 4 4 2 2 2 1 2 2 2 3 5 7 8 9 8 7 6 6 6 5 3 2
0 2 3 4 4 3 3 2 2 3 3 4 6 8 8 6 6 4 4 5 4 4 3 4 4 4 4 3 3 1 1 1 1 3 3 3 3 4 4 3 3 3 4 2 3 2 1 3 2
1 2 2 3 3 1 1 2 3 4 4 6 7 7 6 5 5 4 3 4 4 4 3 3 3 4 4 4 3 2 2 1 2 2 3 3 2 3 2 2 2 2 1 1 2 1 3 4 4
1 1 1 1 1 1 1 1 2 3 4 6 7 7 6 5 4 4 4 4 5 4 3 3 3 4 4 3 2 3 2 2 2 2 2 3 3 2 2 2 2 2 2 2 2 3 4 5 4
1 1 0 1 2 3 2 2 2 3 5 6 7 5 5 4 4 4 4 4 4 4 4 3 3 4 4 3 2 3 2 2 2 2 2 3 3 3 3 2 3 2 2 2 3 3 4 3 3
2 3 3 3 4 3 1 2 2 4 5 6 6 6 5 5 4 4 5 4 5 5 4 4 3 4 4 3 3 3 2 3 2 2 2 3 3 3 3 3 2 2 2 3 3 4 3 3 3
5 4 4 4 5 4 4 2 2 5 6 5 5 5 5 4 5 4 5 5 5 5 4 4 4 4 4 4 3 2 3 3 3 2 2 2 4 4 4 3 2 3 3 3 3 3 3 3 3
6 5 4 4 5 4 4 2 4 4 6 5 5 5 6 6 5 5 5 5 5 5 5 4 4 4 4 3 3 3 3 3 2 2 2 3 4 5 4 2 2 3 3 2 3 3 3 3 3
3 4 3 2 3 3 3 3 4 4 4 5 5 5 6 6 6 6 5 4 4 4 5 5 4 4 4 2 3 2 3 3 2 2 2 3 3 4 3 3 3 3 3 3 3 3 3 2 2
5 5 4 2 1 2 4 4 4 5 5 5 5 5 6 6 7 7 7 5 4 4 4 5 5 4 4 2 2 2 2 2 2 2 3 3 4 3 3 3 3 3 3 2 3 3 3 2 2
6 6 5 2 1 3 4 4 4 5 4 4 4 4 5 7 7 7 7 6 5 5 4 5 5 5 5 3 2 2 2 2 2 2 2 2 3 2 3 3 3 3 3 3 3 3 2 1 0
7 6 5 5 5 6 6 5 4 6 5 4 3 3 3 4 7 8 7 6 5 4 4 4 4 5 5 4 2 2 2 2 2 2 1 1 2 2 2 2 2 3 3 2 2 2 2 1 1
6 4 6 7 6 5 6 3 4 6 6 6 4 3 3 3 4 6 5 5 5 4 3 3 3 4 4 4 3 3 3 2 2 2 1 1 2 2 1 1 2 3 2 2 2 2 1 1 1
6 6 8 9 7 8 8 5 3 5 5 6 6 5 4 4 4 6 5 5 5 4 3 3 3 3 4 4 4 2 2 2 2 2 2 2 2 2 2 2 2 2 2 2 2 2 2 1 1
6 9 10 9 6 8 8 5 2 2 4 6 5 6 5 5 5 5 6 5 4 4 4 3 3 3 2 3 4 3 3 3 3 2 2 2 1 1 1 2 2 2 2 2 2 2 2 1 0
7 6 4 4 5 4 3 3 3 4 5 5 6 5 5 6 5 5 7 6 5 5 4 4 4 3 2 2 3 3 3 3 3 2 2 2 1 1 1 1 1 2 1 2 1 1 1 1 1
6 7 5 4 4 3 3 1 4 6 6 5 6 5 5 5 5 5 7 6 6 5 4 3 4 3 2 2 2 2 3 2 2 2 2 2 2 1 2 2 2 2 2 1 1 1 0 0 1
6 6 7 7 9 7 3 3 3 5 6 5 5 5 4 4 5 5 5 6 6 6 5 4 4 3 2 2 1 2 3 2 1 1 1 1 1 2 2 2 2 2 2 1 1 1 1 1 1
8 8 5 4 5 6 4 2 3 6 5 5 4 4 4 4 5 6 5 5 5 5 5 4 4 3 3 2 1 2 2 2 2 1 1 1 1 1 2 2 2 2 2 2 2 1 1 1 1
7 7 6 5 5 4 4 1 3 5 4 4 4 4 4 4 4 5 5 5 5 4 5 5 4 3 2 2 2 2 2 2 2 1 1 1 1 1 2 2 2 2 2 2 2 1 1 1 0
7 8 7 5 6 6 6 1 2 4 5 4 3 4 4 4 4 4 5 5 5 4 4 5 5 4 3 2 2 2 1 2 2 1 1 1 1 1 1 2 2 2 2 1 2 1 1 1 1
Wind_Direction
256 247 246 257 259 223 69 69 67 47 51 42 38 53 61 49 44 77 102 60 78 86 85 73 58 56 58 59 58 56 57 59 61 64 67 66 65 66 67 70 73 72 70 69 67 67 67 69 70
274 268 268 245 256 78 73 71 68 62 57 48 47 55 69 61 68 91 96 69 81 86 84 74 65 62 61 61 62 60 60 61 62 64 68 68 66 66 67 69 73 74 73 72 72 71 71 70 68
263 264 267 265 19 56 79 77 83 83 67 56 66 54 53 59 66 91 108 99 89 88 88 83 74 68 65 64 63 61 60 61 62 64 68 70 70 67 70 73 73 73 72 73 75 74 73 70 69
259 254 243 328 58 64 80 94 100 95 86 65 76 75 68 57 77 101 104 95 92 95 97 94 82 76 71 67 65 64 63 62 64 66 71 73 72 71 74 76 76 75 74 75 76 76 74 72 68
250 260 252 99 77 76 78 81 79 75 71 67 76 86 85 75 89 99 98 94 98 100 103 106 98 88 80 73 69 68 65 64 67 70 73 76 75 76 77 79 80 78 78 79 78 76 77 74 68
273 262 262 88 88 86 79 78 77 75 76 86 94 98 96 102 93 95 95 89 95 102 109 116 117 105 95 84 75 73 69 67 70 75 80 81 80 82 83 84 84 82 82 83 80 77 76 73 70
288 301 9 92 98 91 79 64 66 73 69 55 73 93 109 110 105 111 112 100 99 104 109 122 130 119 107 97 88 86 82 77 79 85 89 91 89 89 90 87 87 86 84 86 85 82 77 74 70
299 300 44 84 90 86 85 81 75 69 76 57 48 93 123 124 129 128 118 108 100 104 115 122 126 126 125 118 107 106 103 96 96 102 104 106 104 96 95 91 89 89 90 91 92 90 83 76 71
266 265 45 65 80 92 99 96 93 86 93 85 69 78 110 125 133 134 125 115 105 94 95 106 115 118 119 122 121 133 128 123 131 133 133 130 117 106 95 95 96 95 97 99 101 100 97 87 74
222 14 62 64 77 96 93 88 113 121 107 105 99 99 116 134 140 139 133 118 105 98 95 93 103 106 105 101 120 136 124 129 157 115 118 123 95 92 98 105 108 108 108 112 112 115 119 115 88
30 80 64 59 68 75 96 100 97 93 100 108 121 127 133 141 133 130 117 107 103 101 90 94 101 101 100 94 97 91 86 85 57 71 84 80 90 103 100 107 116 112 113 102 102 103 87 84 74
82 56 52 61 75 82 70 78 73 68 76 100 116 126 133 139 135 136 122 114 106 97 99 98 100 106 102 101 102 97 84 84 63 45 81 76 74 79 88 93 102 104 90 68 81 78 72 73 69
162 111 98 104 145 156 119 122 100 102 112 119 129 137 143 147 143 139 132 124 117 113 105 93 96 96 97 97 114 102 76 68 84 48 65 87 86 90 87 83 73 81 81 67 56 59 63 59 52
130 107 214 221 192 182 187 185 161 147 144 140 138 143 154 148 143 134 129 126 124 126 118 108 106 101 106 110 109 96 101 86 73 59 68 89 94 88 79 77 72 63 61 65 72 71 71 68 58
193 201 217 213 220 199 202 238 180 151 161 160 154 154 149 149 150 148 141 132 128 127 117 107 99 94 89 84 87 101 101 91 73 52 52 73 86 93 86 69 74 73 64 61 61 63 68 79 76
221 224 224 203 209 197 218 229 149 157 168 166 164 160 157 161 160 151 139 135 132 130 122 118 106 98 85 75 75 80 80 75 73 58 37 65 84 81 78 69 60 70 69 67 66 60 62 60 60
225 231 222 192 193 198 211 208 148 162 170 173 180 178 169 165 163 149 139 139 140 135 131 125 106 102 95 87 86 69 81 83 77 59 33 50 73 82 85 72 60 65 64 61 69 64 64 66 64
250 251 242 207 170 198 210 215 162 171 182 181 188 190 174 167 163 153 146 140 138 137 134 122 115 109 109 101 97 83 71 73 79 79 56 54 72 82 88 87 71 66 66 58 66 76 68 72 70
280 286 293 297 158 255 240 223 185 175 185 182 190 194 178 168 161 154 149 146 145 137 131 129 130 125 113 104 99 101 100 88 72 71 66 59 69 82 87 89 91 83 86 88 82 80 75 63 69
277 278 281 286 236 252 265 251 193 174 188 183 190 194 182 168 163 154 152 152 151 145 139 138 139 135 129 127 134 138 123 113 102 80 70 67 75 73 96 107 106 95 90 87 87 84 69 49 87
269 276 295 299 289 259 255 250 193 167 169 169 180 180 165 161 164 159 158 154 152 149 147 145 142 138 135 135 121 119 101 100 96 94 84 72 87 79 86 107 122 130 124 120 123 120 108 69 350
285 302 293 282 279 269 255 260 191 172 169 168 176 170 158 152 146 143 144 143 143 138 133 129 130 131 129 129 127 132 128 128 132 127 128 126 114 103 92 94 110 109 114 129 148 128 119 108 24
295 300 286 279 276 275 263 259 194 173 170 166 165 158 147 139 130 132 132 127 128 130 125 124 130 126 127 136 141 140 123 127 121 119 133 120 100 104 107 83 78 91 107 119 110 105 99 97 116
289 280 268 254 258 260 248 241 179 173 152 148 143 149 151 144 136 133 125 120 118 117 117 119 120 111 118 140 139 139 126 125 119 108 114 107 106 84 89 90 88 86 83 91 108 124 133 146 130
251 273 282 244 225 244 231 228 144 120 110 126 135 137 143 144 143 135 128 130 123 118 119 120 120 122 129 135 141 140 135 138 143 140 137 136 135 147 140 113 101 87 79 85 95 108 138 167 157
267 264 271 292 291 300 263 210 121 115 106 109 117 123 123 132 134 138 140 139 135 131 130 130 128 125 123 131 129 130 135 135 143 154 151 161 166 164 149 142 117 109 96 82 81 73 100 118 142
276 270 280 287 288 281 245 136 121 118 122 112 107 114 122 122 125 123 128 135 136 139 141 140 132 128 125 118 128 126 120 117 122 146 146 153 159 154 145 134 124 122 119 102 76 62 46 56 64
254 284 293 282 291 283 270 218 170 156 137 130 121 121 119 122 125 120 120 129 136 147 150 143 140 140 139 142 133 120 116 130 136 126 106 118 119 114 122 131 136 141 133 127 108 79 38 53 38
240 250 263 273 268 282 293 346 81 119 124 130 131 127 117 113 122 122 125 135 134 139 150 148 145 138 136 141 133 123 126 123 128 127 140 144 118 114 129 152 156 154 141 137 132 146 151 129 79
273 265 264 267 276 276 277 250 80 109 113 98 103 113 111 117 107 111 123 123 138 151 161 160 155 150 148 147 139 127 144 151 147 139 142 126 124 135 154 144 137 133 122 119 130 158 149 138 151